Location: Tamazert
(32.6352°N, 5.2072°W)
Time: 16:45:33
(UTC+00:00)

H-II Stage 2 - Pass Details

Date: 22 May 2022
Orbit: 315 x 27855 km, 28.5° (Epoch: 28 June)

Event Time Altitude Azimuth Distance (km) Brightness Sun altitude
Rises 03:44:06 0° 276° (W) 10,336 7.9 -17.6°
Reaches altitude 10° 03:55:22 10° 273° (W) 5,955 6.6 -15.7°
Maximum altitude 04:06:43 46° 204° (SSW) 1,122 3.0 -13.8°
Drops below altitude 10° 04:09:49 10° 128° (SE) 1,672 4.5 -13.3°
Sets 04:11:08 0° 120° (ESE) 2,281 5.3 -13.0°
